Atka, AK

2:52 PM HDT on August 28, 2016 (GMT -0900)
Atka

Weather History for PAAK - February, 2014

Change the Weather History Date:

Sunday, February 2, 2014

  Actual Average (PADK) Record (PADK)
Temperature  
Mean Temperature 36 °F -  
Max Temperature 37 °F 35 °F 44 °F (1957)
Min Temperature 35 °F 26 °F 6 °F (2016)
Degree Days  
Heating Degree Days 29    
Moisture  
Dew Point 25 °F    
Average Humidity 65    
Maximum Humidity 70    
Minimum Humidity 56    
Precipitation  
Precipitation 0.00 in - - ()
Sea Level Pressure  
Sea Level Pressure 30.29 in    
Wind  
Wind Speed 16 mph (East)    
Max Wind Speed 28 mph    
Max Gust Speed 34 mph    
Visibility 10 miles    
Events      
Averages and records for this station are not official NWS values.
T = Trace of Precipitation, MM = Missing Value Source: NWS Daily Summary

Daily Weather History Graph

Daily Weather History Graph

Search for Another Location

Airport or City:

Trip Planner

Search our weather history database for the weather conditions in past years. The results will help you decide how hot, cold, wet, or windy it might be!

Date:

Astronomy

Feb. 02, 2014 Rise Set
Actual Time 9:15 AM HST 6:26 PM HST
Civil Twilight 8:38 AM HST 7:03 PM HST
Nautical Twilight 7:57 AM HST 7:43 PM HST
Astronomical Twilight 7:18 AM HST 8:23 PM HST
Moon 10:18 AM HST (2/2) 11:03 PM HST (2/2)
Length of Visible Light 10h 24m
Length of Day
9h 11m
Waxing Crescent, 13% of the Moon is Illuminated
Feb 2
Waxing Crescent
Feb 6
First Quarter
Feb 14
Full
Feb 22
Last Quarter
Feb 28
New

Hourly Weather History & Observations

Time (HST) Temp. Windchill Dew Point Humidity Pressure Visibility Wind Dir Wind Speed Gust Speed Precip Events Conditions
12:16 AM 37.4 °F 27.2 °F 26.6 °F 65% 30.40 in 10.0 mi ESE 19.6 mph - N/A   Overcast
12:36 AM 37.4 °F 27.5 °F 26.6 °F 65% 30.40 in 10.0 mi ESE 18.4 mph - N/A   Overcast
12:56 AM 37.4 °F 27.2 °F 26.6 °F 65% 30.40 in 10.0 mi ESE 19.6 mph - N/A   Overcast
1:16 AM 37.4 °F 27.8 °F 26.6 °F 65% 30.39 in 10.0 mi ESE 17.3 mph - N/A   Overcast
1:36 AM 37.4 °F 27.5 °F 24.8 °F 60% 30.39 in 10.0 mi SE 18.4 mph 24.2 mph N/A   Overcast
1:56 AM 37.4 °F 28.5 °F 26.6 °F 65% 30.39 in 10.0 mi ESE 15.0 mph - N/A   Overcast
2:16 AM 35.6 °F 26.2 °F 26.6 °F 70% 30.39 in 10.0 mi ESE 15.0 mph - N/A   Overcast
2:36 AM 35.6 °F 26.6 °F 26.6 °F 70% 30.38 in 10.0 mi ESE 13.8 mph - N/A   Overcast
2:56 AM 35.6 °F 27.1 °F 26.6 °F 70% 30.38 in 10.0 mi ESE 12.7 mph - N/A   Overcast
3:16 AM 35.6 °F 26.6 °F 26.6 °F 70% 30.38 in 10.0 mi ESE 13.8 mph - N/A   Overcast
3:36 AM 35.6 °F 27.1 °F 26.6 °F 70% 30.38 in 10.0 mi ESE 12.7 mph - N/A   Overcast
3:56 AM 35.6 °F 27.1 °F 26.6 °F 70% 30.39 in 10.0 mi East 12.7 mph - N/A   Overcast
4:16 AM 35.6 °F 27.5 °F 26.6 °F 70% 30.38 in 10.0 mi ESE 11.5 mph - N/A   Overcast
4:36 AM 35.6 °F 27.5 °F 24.8 °F 65% 30.38 in 10.0 mi East 11.5 mph - N/A   Overcast
4:56 AM 35.6 °F 27.1 °F 26.6 °F 70% 30.37 in 10.0 mi East 12.7 mph - N/A   Overcast
5:16 AM 35.6 °F 28.0 °F 24.8 °F 65% 30.38 in 10.0 mi East 10.4 mph - N/A   Overcast
5:36 AM 35.6 °F 28.0 °F 24.8 °F 65% 30.38 in 10.0 mi East 10.4 mph - N/A   Overcast
5:56 AM 35.6 °F 27.1 °F 24.8 °F 65% 30.37 in 10.0 mi East 12.7 mph - N/A   Overcast
6:16 AM 35.6 °F 28.0 °F 24.8 °F 65% 30.37 in 10.0 mi East 10.4 mph - N/A   Overcast
6:36 AM 35.6 °F 26.6 °F 26.6 °F 70% 30.36 in 10.0 mi East 13.8 mph - N/A   Overcast
6:56 AM 37.4 °F 27.8 °F 26.6 °F 65% 30.36 in 10.0 mi East 17.3 mph - N/A   Overcast
7:16 AM 37.4 °F 28.2 °F 26.6 °F 65% 30.36 in 10.0 mi East 16.1 mph - N/A   Overcast
7:36 AM 37.4 °F 28.5 °F 26.6 °F 65% 30.35 in 10.0 mi East 15.0 mph - N/A   Overcast
7:56 AM 37.4 °F 28.5 °F 26.6 °F 65% 30.35 in 10.0 mi East 15.0 mph 20.7 mph N/A   Overcast
8:16 AM 35.6 °F 26.6 °F 26.6 °F 70% 30.34 in 10.0 mi East 13.8 mph - N/A   Overcast
8:36 AM 35.6 °F 27.1 °F 26.6 °F 70% 30.35 in 10.0 mi East 12.7 mph - N/A   Overcast
8:56 AM 35.6 °F 26.2 °F 24.8 °F 65% 30.34 in 10.0 mi ENE 15.0 mph 21.9 mph N/A   Overcast
9:16 AM 35.6 °F 25.5 °F 24.8 °F 65% 30.34 in 10.0 mi East 17.3 mph 24.2 mph N/A   Overcast
9:36 AM 35.6 °F 26.2 °F 26.6 °F 70% 30.34 in 10.0 mi East 15.0 mph 20.7 mph N/A   Overcast
9:56 AM 35.6 °F 25.9 °F 24.8 °F 65% 30.34 in 10.0 mi East 16.1 mph 21.9 mph N/A   Overcast
10:16 AM 35.6 °F 25.9 °F 26.6 °F 70% 30.33 in 10.0 mi East 16.1 mph 24.2 mph N/A   Overcast
10:36 AM 35.6 °F 25.2 °F 26.6 °F 70% 30.33 in 10.0 mi East 18.4 mph 27.6 mph N/A   Overcast
10:56 AM 35.6 °F 23.7 °F 24.8 °F 65% 30.32 in 10.0 mi ENE 24.2 mph 28.8 mph N/A   Overcast
11:16 AM 35.6 °F 24.2 °F 24.8 °F 65% 30.31 in 10.0 mi ENE 21.9 mph 29.9 mph N/A   Overcast
11:36 AM 35.6 °F 24.8 °F 24.8 °F 65% 30.31 in 10.0 mi ENE 19.6 mph 26.5 mph N/A   Overcast
11:56 AM 35.6 °F 25.2 °F 24.8 °F 65% 30.31 in 10.0 mi East 18.4 mph 24.2 mph N/A   Overcast
12:16 PM 35.6 °F 25.5 °F 24.8 °F 65% 30.31 in 10.0 mi ENE 17.3 mph 24.2 mph N/A   Unknown
12:36 PM 35.6 °F 25.2 °F 23.0 °F 60% 30.30 in 10.0 mi ENE 18.4 mph 25.3 mph N/A   Overcast
12:56 PM 35.6 °F 25.2 °F 24.8 °F 65% 30.30 in 10.0 mi ENE 18.4 mph - N/A   Overcast
1:16 PM 37.4 °F 27.8 °F 24.8 °F 60% 30.29 in 10.0 mi East 17.3 mph 25.3 mph N/A   Overcast
1:36 PM 37.4 °F 27.5 °F 24.8 °F 60% 30.28 in 10.0 mi East 18.4 mph - N/A   Overcast
1:56 PM 37.4 °F 27.5 °F 24.8 °F 60% 30.27 in 10.0 mi ENE 18.4 mph 25.3 mph N/A   Overcast
2:16 PM 37.4 °F 28.2 °F 24.8 °F 60% 30.26 in 10.0 mi ENE 16.1 mph 21.9 mph N/A   Overcast
2:36 PM 37.4 °F 28.9 °F 24.8 °F 60% 30.26 in 10.0 mi ENE 13.8 mph - N/A   Overcast
2:56 PM 37.4 °F 29.8 °F 23.0 °F 56% 30.26 in 10.0 mi ENE 11.5 mph 27.6 mph N/A   Overcast
3:16 PM 37.4 °F 28.9 °F 23.0 °F 56% 30.24 in 10.0 mi ENE 13.8 mph 18.4 mph N/A   Overcast
3:36 PM 37.4 °F 28.2 °F 24.8 °F 60% 30.24 in 10.0 mi ENE 16.1 mph 26.5 mph N/A   Overcast
3:56 PM 35.6 °F 26.6 °F 23.0 °F 60% 30.24 in 10.0 mi NE 13.8 mph - N/A   Mostly Cloudy
4:16 PM 35.6 °F 28.0 °F 23.0 °F 60% 30.24 in 10.0 mi NE 10.4 mph - N/A   Mostly Cloudy
4:36 PM 35.6 °F 28.6 °F 21.2 °F 56% 30.23 in 10.0 mi ENE 9.2 mph - N/A   Partly Cloudy
4:56 PM 35.6 °F 27.1 °F 23.0 °F 60% 30.23 in 10.0 mi East 12.7 mph 18.4 mph N/A   Partly Cloudy
5:16 PM 35.6 °F 28.0 °F 21.2 °F 56% 30.23 in 10.0 mi NE 10.4 mph 17.3 mph N/A   Clear
5:36 PM 35.6 °F 26.2 °F 21.2 °F 56% 30.22 in 10.0 mi NE 15.0 mph 19.6 mph N/A   Partly Cloudy
5:56 PM 35.6 °F 27.5 °F 23.0 °F 60% 30.22 in 10.0 mi NNE 11.5 mph 17.3 mph N/A   Mostly Cloudy
6:16 PM 35.6 °F 29.2 °F 24.8 °F 65% 30.22 in 10.0 mi NE 8.1 mph - N/A   Overcast
6:36 PM 35.6 °F 25.2 °F 24.8 °F 65% 30.21 in 10.0 mi ENE 18.4 mph 23.0 mph N/A   Overcast
6:56 PM 35.6 °F 25.5 °F 24.8 °F 65% 30.21 in 10.0 mi ENE 17.3 mph 24.2 mph N/A   Overcast
7:16 PM 35.6 °F 26.6 °F 26.6 °F 70% 30.21 in 10.0 mi ENE 13.8 mph 21.9 mph N/A   Overcast
7:36 PM 35.6 °F 27.1 °F 24.8 °F 65% 30.20 in 10.0 mi ENE 12.7 mph 18.4 mph N/A   Overcast
7:56 PM 35.6 °F 25.5 °F 24.8 °F 65% 30.20 in 10.0 mi NE 17.3 mph 21.9 mph N/A   Overcast
8:16 PM 35.6 °F 23.0 °F 24.8 °F 65% 30.17 in 10.0 mi ENE 27.6 mph 34.5 mph N/A   Overcast
8:36 PM 35.6 °F 23.4 °F 24.8 °F 65% 30.16 in 10.0 mi ENE 25.3 mph 29.9 mph N/A   Scattered Clouds
8:56 PM 35.6 °F 24.0 °F 24.8 °F 65% 30.15 in 10.0 mi ENE 23.0 mph 31.1 mph N/A   Clear
9:16 PM 35.6 °F 24.0 °F 24.8 °F 65% 30.15 in 10.0 mi ENE 23.0 mph 34.5 mph N/A   Clear
9:36 PM 35.6 °F 24.5 °F 24.8 °F 65% 30.15 in 10.0 mi ENE 20.7 mph - N/A   Clear
9:56 PM 35.6 °F 25.5 °F 26.6 °F 70% 30.15 in 10.0 mi NE 17.3 mph 20.7 mph N/A   Clear
10:16 PM 35.6 °F 25.9 °F 24.8 °F 65% 30.14 in 10.0 mi ENE 16.1 mph 21.9 mph N/A   Clear
10:36 PM 35.6 °F 25.9 °F 24.8 °F 65% 30.14 in 10.0 mi ENE 16.1 mph 20.7 mph N/A   Clear
10:56 PM 35.6 °F 27.1 °F 24.8 °F 65% 30.13 in 10.0 mi East 12.7 mph 24.2 mph N/A   Clear
11:16 PM 35.6 °F 32.8 °F 24.8 °F 65% 30.13 in 10.0 mi ENE 3.5 mph - N/A   Clear
11:36 PM 35.6 °F 28.6 °F 24.8 °F 65% 30.13 in 10.0 mi SSE 9.2 mph - N/A   Scattered Clouds
11:56 PM 35.6 °F 27.1 °F 23.0 °F 60% 30.12 in 10.0 mi SW 12.7 mph - N/A   Overcast